Overview Statistics Trail Chart Weather Telemetry Raw packets
 

This is the latest recevied weather packets stored in our database for station/object SR8WXL-13. If no packets are shown the sender has not sent any weather packets the latest 10 day(s).

<< 4 5 6 7 8 9 10 >>
Time Temp. Humidity Pressure Rain* Wind** Luminosity Snow
1788532430 23.89° C 54% 1028.4 hPa 0 mm - - -
1788531537 23.89° C 54% 1028.8 hPa 0 mm - - -
1788530646 23.89° C 55% 1028.7 hPa 0 mm - - -
1788529922 23.89° C 56% 1028.7 hPa 0 mm - - -
1788529181 23.89° C 56% 1029 hPa 0 mm - - -
1788528336 23.89° C 55% 1028.9 hPa 0 mm - - -
1788527556 25° C 56% 1029.5 hPa 0 mm - - -
1788526665 23.89° C 60% 1029.5 hPa 0 mm - - -
1788525771 22.78° C 62% 1029.8 hPa 0 mm - - -
1788524911 22.78° C 62% 1030.2 hPa 0 mm - - -
1788524081 22.22° C 64% 1030 hPa 0 mm - - -
1788523348 22.78° C 62% 1030 hPa 0 mm - - -
1788522580 22.78° C 63% 1030.1 hPa 0 mm - - -
1788521796 22.22° C 66% 1030.5 hPa 0 mm - - -
1788520936 22.22° C 65% 1030.6 hPa 0 mm - - -
1788520121 21.11° C 69% 1030.7 hPa 0 mm - - -
1788519407 21.11° C 70% 1030.8 hPa 0 mm - - -
1788518586 20° C 72% 1031.2 hPa 0 mm - - -
1788517724 20° C 72% 1031.3 hPa 0 mm - - -
1788516874 20° C 72% 1031.1 hPa 0 mm - - -
1788516002 20° C 71% 1031.3 hPa 0 mm - - -
1788515157 20° C 71% 1031.4 hPa 0 mm - - -
1788514294 21.11° C 69% 1031.3 hPa 0 mm - - -
1788513577 21.11° C 69% 1030.9 hPa 0 mm - - -
1788512781 20° C 70% 1031.1 hPa 0 mm - - -

* Rain latest hour (hover to see other rain measurements)
** Current wind speed in m/s (hover to see current wind gust speed)